Location: Marshall
(39.8477°N, 87.1868°W)
Time: 11:25:30
(UTC+00:00)

BlueWalker 3 - Visible Passes

Search period start: 08 May 2026 00:00
Search period end: 18 May 2026 00:00
Orbit: 448 x 458 km, 53.2° (Epoch: 7 May)

Date Brightness Start Highest point End Pass type
(mag) Time Alt. Az. Time Alt. Az. Time Alt. Az.
8 May 2.3 08:32:10 46° NW 08:32:16 46° NW 08:35:42 10° NE visible
8 May 4.3 10:08:39 10° NW 10:10:23 13° NNW 10:12:07 10° NNE visible
9 May 3.1 07:56:36 39° NNE 07:56:36 39° NNE 07:59:00 10° NE visible
9 May 4.3 09:31:24 10° NW 09:33:29 15° NNW 09:35:34 10° NNE visible
10 May 4.2 07:20:58 21° NE 07:20:58 21° NE 07:22:17 10° NE visible
10 May 4.1 08:54:36 12° WNW 08:56:34 17° NNW 08:58:59 10° NNE visible
11 May 4.9 06:45:18 11° NE 06:45:18 11° NE 06:45:30 10° NE visible
11 May 3.8 08:18:55 19° NW 08:19:41 20° NNW 08:22:23 10° NNE visible
12 May 3.8 07:43:11 23° NNW 07:43:11 23° NNW 07:45:45 10° NNE visible
12 May 4.8 09:20:54 10° NNW 09:21:15 10° N 09:21:36 10° N visible
13 May 4.2 07:07:24 21° N 07:07:24 21° N 07:09:06 10° NNE visible
13 May 4.7 08:43:17 10° NNW 08:44:16 11° N 08:45:14 10° N visible
14 May 4.7 06:31:34 16° NNE 06:31:34 16° NNE 06:32:25 10° NE visible
14 May 4.6 08:05:52 10° NW 08:07:17 12° NNW 08:08:43 10° N visible
14 May 5.0 09:45:35 10° N 09:46:02 10° N 09:46:29 10° NNE visible
15 May 5.0 05:55:42 10° NE 05:55:42 10° NE 05:55:42 10° NE visible
15 May 4.5 07:29:17 12° NW 07:30:19 13° NNW 07:32:08 10° NNE visible
16 May 4.5 06:53:19 15° NNW 06:53:21 15° NNW 06:55:31 10° NNE visible
17 May 4.6 06:17:14 16° N 06:17:14 16° N 06:18:52 10° NNE visible
17 May 4.7 09:31:33 10° NNW 09:33:40 15° NNE 09:35:46 10° NE visible
